This demonstration page uses our WeatherBlox Daily Observations layout. Learn more.

Hourly Observations for December 6, 2015

Temp ( °F °C ) Dew Point ( °F °C ) Humidity (%) Winds ( mph kmh ) Pressure ( in mb ) Visibility ( mi km ) Precip ( " mm )
12:15 am 00:15 Clear 37 2.6 30 -1.1 77 77 NW 10 17 30.42 1030 10 16.0934 0 0
12:35 am 00:35 Clear 36 2.1 29 -1.5 77 77 NW 10 17 30.45 1031 10 16.0934 0 0
12:55 am 00:55 Clear 36 2.1 29 -1.7 76 76 NW 12 19 30.45 1031 10 16.0934 0 0
1:15 am 01:15 Clear 35 1.5 28 -2 78 78 NW 9 15 30.45 1031 10 16.0934 0 0
1:35 am 01:35 Clear 34 1.2 28 -2 79 79 NW 9 15 30.45 1031 10 16.0934 0 0
1:55 am 01:55 Clear 34 1 28 -2 81 81 NW 10 17 30.45 1031 10 16.0934 0 0
2:15 am 02:15 Clear 32 0.2 28 -2 85 85 NW 9 15 30.45 1031 10 16.0934 0 0
2:35 am 02:35 Clear 34 1.1 29 -1.8 81 81 NW 9 15 30.45 1031 10 16.0934 0 0
2:55 am 02:55 Clear 34 1.1 28 -2 80 80 NW 9 15 30.45 1031 10 16.0934 0 0
3:15 am 03:15 Clear 34 1.1 28 -2 80 80 NW 10 17 30.45 1031 10 16.0934 0 0
3:35 am 03:35 Clear 34 1.1 28 -2 80 80 NW 10 17 30.45 1031 10 16.0934 0 0
3:55 am 03:55 Clear 34 1 28 -2.1 80 80 NW 10 17 30.45 1031 10 16.0934 0 0
4:15 am 04:15 Clear 33 0.7 28 -2.2 81 81 NW 10 17 30.45 1031 10 16.0934 0 0
4:35 am 04:35 Clear 32 0.1 28 -2.3 84 84 NW 10 17 30.45 1031 10 16.0934 0 0
4:55 am 04:55 Clear 32 0 28 -2.4 84 84 NW 9 15 30.45 1031 10 16.0934 0 0
5:15 am 05:15 Clear 32 0.1 28 -2.5 83 83 WNW 8 13 30.45 1031 10 16.0934 0 0
5:35 am 05:35 Clear 32 0 27 -2.7 82 82 NW 8 13 30.48 1032 10 16.0934 0 0
5:55 am 05:55 Clear 32 0 27 -2.8 82 82 WNW 8 13 30.48 1032 10 16.0934 0 0
6:15 am 06:15 Clear 32 -0.1 27 -3 81 81 WNW 7 11 30.48 1032 10 16.0934 0 0
6:35 am 06:35 Clear 31 -0.5 27 -3 83 83 WNW 7 11 30.48 1032 10 16.0934 0 0
6:55 am 06:55 Clear 31 -0.5 27 -3 83 83 WNW 6 9 30.48 1032 10 16.0934 0 0
7:15 am 07:15 Clear 31 -0.7 26 -3.1 84 84 WNW 7 11 30.5 1033 10 16.0934 0 0
7:35 am 07:35 Clear 31 -0.6 26 -3.4 82 82 WNW 7 11 30.5 1033 10 16.0934 0 0
7:55 am 07:55 Sunny 30 -1.2 26 -3.4 85 85 W 6 9 30.5 1033 10 16.0934 0 0
8:15 am 08:15 Sunny 31 -0.6 26 -3.1 83 83 W 7 11 30.5 1033 10 16.0934 0 0
8:35 am 08:35 Sunny 32 0.1 27 -2.6 82 82 WNW 7 11 30.48 1032 10 16.0934 0 0
8:55 am 08:55 Sunny 33 0.8 28 -2.5 79 79 WNW 7 11 30.48 1032 10 16.0934 0 0
9:15 am 09:15 Sunny 36 2 29 -1.8 76 76 WNW 7 11 30.48 1032 10 16.0934 0 0
9:35 am 09:35 Sunny 37 2.7 29 -1.5 74 74 WNW 9 15 30.5 1033 10 16.0934 0 0
9:55 am 09:55 Sunny 38 3.6 30 -1.1 72 72 W 9 15 30.48 1032 10 16.0934 0 0
10:15 am 10:15 Sunny 38 3.6 30 -1.2 71 71 W 9 15 30.48 1032 10 16.0934 0 0
10:35 am 10:35 Sunny 40 4.7 30 -0.9 67 67 W 7 11 30.48 1032 10 16.0934 0 0
10:55 am 10:55 Sunny 43 6.2 31 -0.7 62 62 W 6 9 30.45 1031 10 16.0934 0 0
11:15 am 11:15 Sunny 44 6.8 31 -0.4 60 60 WSW 7 11 30.42 1030 10 16.0934 0 0
11:35 am 11:35 Sunny 46 7.6 31 -0.5 57 57 W 5 7 30.42 1030 10 16.0934 0 0
11:55 am 11:55 Sunny 47 8.6 31 -0.7 52 52 SW 5 7 30.42 1030 10 16.0934 0 0
12:15 pm 12:15 Sunny 50 9.8 31 -0.7 48 48 WSW 6 9 30.36 1028 10 16.0934 0 0
12:35 pm 12:35 Sunny 50 10.2 29 -1.4 45 45 SW 5 7 30.36 1028 10 16.0934 0 0
12:55 pm 12:55 Sunny 52 10.9 30 -0.9 44 44 SW 6 9 30.33 1027 10 16.0934 0 0
1:15 pm 13:15 Sunny 52 11 29 -1.7 41 41 WSW 7 11 30.33 1027 10 16.0934 0 0
1:35 pm 13:35 Sunny 53 11.6 29 -1.9 39 39 W 10 17 30.33 1027 10 16.0934 0 0
1:55 pm 13:55 Sunny 53 11.5 28 -2.3 38 38 WSW 9 15 30.33 1027 10 16.0934 0 0
2:15 pm 14:15 Sunny 53 11.5 28 -2.2 39 39 W 9 15 30.27 1025 10 16.0934 0 0
2:35 pm 14:35 Sunny 53 11.5 28 -2.5 38 38 WSW 7 11 30.27 1025 10 16.0934 0 0
2:55 pm 14:55 Sunny 53 11.8 26 -3.1 35 35 SW 10 17 30.27 1025 10 16.0934 0 0
3:15 pm 15:15 Sunny 53 11.8 27 -2.8 36 36 SW 9 15 30.24 1024 10 16.0934 0 0
3:35 pm 15:35 Sunny 53 11.9 27 -2.8 36 36 SW 10 17 30.24 1024 10 16.0934 0 0
3:55 pm 15:55 Sunny 53 11.7 26 -3.1 36 36 SW 8 13 30.24 1024 10 16.0934 0 0
4:15 pm 16:15 Sunny 53 11.5 27 -3 36 36 SW 7 11 30.24 1024 10 16.0934 0 0
4:35 pm 16:35 Sunny 50 10 27 -2.7 41 41 SW 6 9 30.27 1025 10 16.0934 0 0
4:55 pm 16:55 Sunny 49 9.2 27 -2.6 44 44 SW 6 9 30.27 1025 10 16.0934 0 0
5:15 pm 17:15 Clear 47 8.1 28 -2.5 47 47 SSW 3 6 30.3 1026 10 16.0934 0 0
5:35 pm 17:35 Clear 45 7.2 27 -2.6 50 50 SSW 6 9 30.27 1025 10 16.0934 0 0
5:55 pm 17:55 Clear 44 6.4 27 -3 51 51 SSW 6 9 30.27 1025 10 16.0934 0 0
6:15 pm 18:15 Clear 42 5.3 26 -3.1 55 55 SSW 6 9 30.27 1025 10 16.0934 0 0
6:35 pm 18:35 Clear 40 4.5 26 -3.4 57 57 SSW 6 9 30.27 1025 10 16.0934 0 0
6:55 pm 18:55 Clear 40 4.3 26 -3.6 57 57 SSW 6 9 30.3 1026 10 16.0934 0 0
7:15 pm 19:15 Clear 38 3.1 25 -3.8 61 61 SSW 6 9 30.3 1026 10 16.0934 0 0
7:35 pm 19:35 Clear 37 2.9 25 -3.7 62 62 SSW 6 9 30.3 1026 10 16.0934 0 0
7:55 pm 19:55 Clear 37 2.7 25 -3.7 63 63 SSW 5 7 30.3 1026 10 16.0934 0 0
8:15 pm 20:15 Clear 37 2.8 25 -3.7 63 63 S 8 13 30.3 1026 10 16.0934 0 0
8:35 pm 20:35 Clear 37 2.7 25 -3.7 63 63 SSW 7 11 30.3 1026 10 16.0934 0 0
8:55 pm 20:55 Clear 36 2.1 25 -4 64 64 SSW 7 11 30.27 1025 10 16.0934 0 0
9:15 pm 21:15 Clear 36 2.1 25 -4 64 64 S 3 6 30.27 1025 10 16.0934 0 0
9:35 pm 21:35 Clear 36 2 25 -4 65 65 S 7 11 30.27 1025 10 16.0934 0 0
9:55 pm 21:55 Clear 39 3.7 25 -4 58 58 S 10 17 30.24 1024 10 16.0934 0 0
10:15 pm 22:15 Clear 39 3.7 25 -3.7 59 59 S 10 17 30.24 1024 10 16.0934 0 0
10:35 pm 22:35 Clear 38 3.6 26 -3.5 60 60 SSW 8 13 30.24 1024 10 16.0934 0 0
10:55 pm 22:55 Clear 38 3.6 26 -3.5 60 60 S 10 17 30.24 1024 10 16.0934 0 0
11:15 pm 23:15 Clear 39 4 25 -3.7 58 58 SSW 12 19 30.24 1024 10 16.0934 0 0
11:35 pm 23:35 Clear 40 4.3 25 -3.8 56 56 SSW 13 20 30.24 1024 10 16.0934 0 0
11:55 pm 23:55 Clear 38 3.6 25 -3.8 59 59 SSW 9 15 30.24 1024 10 16.0934 0 0

Powered by AerisWeather